map of BJY home
BJY - Airport
Location
City:  Batajnica, Serbia
Near (Alt.):Nova Pazova
Name:Batajnia AB
ICAO:LYBT
IATA:BJY

Details
Type:Airport (Aerodrome, Airfield)
Use:Military
Latitude:4456'07"N (44.935331)
Longitude:2015'27"E (20.257506)
Datum:WGS 1984
Elevation:265 ft (81 m)
Variation:4.80E (WMM2015 magnetic declination)
0.11 annual change
Runways:3
Longest:8181 × 148 ft (2494 × 45 m), paved

Time
Time Zone:UTC+1 (DST+2)
Local Time:

Weather
METAR:LYBT 210930Z 36006KT 9999 SCT010 BKN033 01/M01 Q1022 NOSIG
TAF:LYBT 210500Z 2106/2206 36005KT 6000 OVC010 TX02/2112Z TNM03/2205Z
TEMPO 2106/2108 3000 -DZ BR BKN005 OVC010
TEMPO 2110/2116 BKN015 OVC023
TEMPO 2121/2206 4000 -SN

Related Locations
Nearby:
Farthest:CHT: 11610 mi / 18685 km
Waitangi [Tuuta], CIT, NZ

Find:

   beyond  
but within

Other Information
Maps:
NOTAMs:
Links:
Sources:

  
  • flag of Serbia
  

Sectional Chart

Flight Planning
at skyvector.com

Satellite Image

Google Maps Satellite view

 

Copyright © 2004-2019 Karl L. Swartz. All rights reserved.
The Great Circle Mapper name and logo are trademarks of the Great Circle Mapper.
All other trademarks mentioned herein belong to their respective owners.
Please see credits for attibutions and further copyright information.

  Follow gcmap on Facebook Follow gcmap on Twitter Follow gcmap on Google+ GCmap on LinkedIn

hCard Microformat

Geo Microformat